Ohio Foreclosures > Auctions > 7242 Ohio Ave., Cincinnati, OH 45236

7242 Ohio Ave., Cincinnati, OH 45236

Auction closed for price: $64,808.00
Auction ID :
#44129
Reserve :
Reserve price met.
Location :
Posted On :
21st of October 2022 at 4:29 PM ET
Ending On :
17th of November 2022 at 1:30 PM ET
Watch List :
Image Gallery
Property Specifications
Year Built 1945
Annual Taxes OF RECORD
Lot Size .133
Parcel ID 609-0007-0234-00
Defendant Marshall's Thrifty Print, Inc
File No. N/A
Case No. A2102798
Appraisal Amount N/A
City Cincinnati
Square Feet (per auditor) 2,530
Showings & Availability Yes
Description

Foreclosure Sale by Court-Appointed Receiver. Online bidding only. Conveniently located in Deer Park, the property is only minutes away from Kenwood Mall and has great access to I-71 and Ronald Reagan Highway. According to public record, the property was constructed in 1945 and features approximately 2,530 SF of commercial space. Great location for retail or office.

Property will be sold free and clear of all liens, with property taxes prorated and paid to the day of closing.  Receiver may, in its sole discretion, accept or reject any bid or offer for any reason, at any time, without notice.  No representations, warranties, or guarantees.  Bidding is scheduled to conclude on 11/17/22 at 1pm ET.  A 10% Buyer’s Premium is added to the high successful bid to determine the final purchase price.  The high successful bidder must wire transfer a deposit of $10,000.00 by 3pm EST on Friday, November 18, 2022.  Furthermore, a Receiver’s Purchase and Sale Agreement is required to be executed by the high successful bidder within 24 hours of auction conclusion.

Prospective Bidders may tour the Property after meeting the following requirements:

  1. Fill out and sign the Hold Harmless Showing Waiver
  2. Email the executed waiver to [email protected] for approval.

Please do not trespass or attempt to access the property in any way without prior written consent.  Photos are provided for guidance purposes only.  All information provided is believed to be true, but cannot be guaranteed.  It is up to the bidder to verify any / all code violations prior to bidding.

Information contained in ANY advertisement for this property is not guaranteed or warranted and should not be relied upon.  BY BIDDING ON THIS PROPERTY, THE BIDDER REPRESENTS IT HAS INDEPENDENTLY VERIFIED ALL INFORMATION AND MADE THE DECISION TO BID BASED UPON THEIR OWN INVESTIGATION.

Key sale points:

  • The opening bid and reserve price is $47,000.
  • Property is sold 100% AS-IS, WHERE-IS, with all faults.
  • Property is sold subject to any / all code violations, to the extent any exist.
  • Property is sold subject to court approval.
  • All bids are subject to Receiver’s confirmation.
  • Receiver reserves the right to accept or reject any bid or offer, at any time prior to or subsequent to auction end, for any reason.
  • Information contained in any advertisement is not guaranteed or warranted.
  • No contingencies will be accepted, except the Receiver’s ability to convey insurable title.
  • Property will be sold free and clear of all liens.
  • Property taxes will be pro-rated to the day of closing.
  • The Receiver does not warrant title to any personal property at the property.
  • Absolutely no financing contingencies.
  • Absolutely no inspection contingencies.
  • 10% Buyer’s Premium is added to the high successful bid to determine the final purchase price.
  • $10,000.00 deposit must be wired to Receiver’s title company by 3pm EST on Friday, November 18, 2022.
  • Receiver’s Purchase and Sale Agreement must be executed by the high successful bidder within 24 hours after the auction conclusion. The terms of the Purchase and Sale Agreement are not negotiable.

Posted Bids
BidderBid AmountDate MadeWinner
bl******n$64,808.0017-Nov-2022 13:25:57Yes
ce*********n$64,708.0017-Nov-2022 13:25:55 
bl******n$64,607.0017-Nov-2022 13:24:00 
el******e$64,507.0017-Nov-2022 13:23:58 
bl******n$63,503.0017-Nov-2022 13:21:12 
ce*********n$63,403.0017-Nov-2022 13:21:11 
bl******n$63,302.0017-Nov-2022 13:20:57 
ce*********n$63,202.0017-Nov-2022 13:20:56 
bl******n$63,101.0017-Nov-2022 13:20:41 
el******e$63,001.0017-Nov-2022 13:20:40 
el******e$62,301.0017-Nov-2022 13:20:22 
ce*********n$62,201.0017-Nov-2022 13:20:21 
el******e$62,100.0017-Nov-2022 13:19:02 
bl******n$62,000.0017-Nov-2022 13:19:01 
bl******n$60,601.0017-Nov-2022 13:17:15 
el******e$60,501.0017-Nov-2022 13:17:14 
bl******n$60,301.0017-Nov-2022 13:13:41 
ce*********n$60,201.0017-Nov-2022 13:13:40 
bl******n$60,100.0017-Nov-2022 13:11:53 
el******e$60,000.0017-Nov-2022 13:11:51 
el******e$59,100.0017-Nov-2022 13:11:07 
bl******n$59,000.0017-Nov-2022 13:11:05 
bl******n$58,701.0017-Nov-2022 13:10:52 
ce*********n$58,601.0017-Nov-2022 13:10:51 
bl******n$58,500.0017-Nov-2022 13:09:00 
el******e$58,400.0017-Nov-2022 13:08:59 
bl******n$58,000.0017-Nov-2022 13:07:09 
el******e$57,900.0017-Nov-2022 13:07:08 
bl******n$57,700.0017-Nov-2022 13:05:54 
el******e$57,600.0017-Nov-2022 13:05:53 
bl******n$57,440.0017-Nov-2022 13:03:07 
na*******o$57,340.0017-Nov-2022 13:03:06 
na*******o$57,100.0017-Nov-2022 13:02:50 
bl******n$57,000.0017-Nov-2022 13:02:48 
na*******o$55,100.0017-Nov-2022 13:01:21 
bl******n$55,000.0017-Nov-2022 13:00:59 
ce*********n$54,900.0017-Nov-2022 13:00:58 
bl******n$54,789.0017-Nov-2022 12:59:34 
na*******o$54,689.0017-Nov-2022 12:59:33 
na*******o$52,350.0017-Nov-2022 12:58:56 
Mh******g$52,250.0017-Nov-2022 12:58:50 
na*******o$51,850.0017-Nov-2022 12:58:03 
Mh******g$51,750.0017-Nov-2022 12:58:02 
na*******o$51,100.0017-Nov-2022 12:57:21 
bl******n$51,000.0017-Nov-2022 12:57:20 
bl******n$50,100.0017-Nov-2022 12:56:26 
Mh******g$50,000.0017-Nov-2022 12:56:25 
Mh******g$49,900.0017-Nov-2022 12:56:17 
sh***************************m$49,800.0017-Nov-2022 12:55:22 
Mh******g$49,750.0017-Nov-2022 12:55:21 
Mh******g$49,600.0017-Nov-2022 12:54:43 
sh***************************m$49,500.0017-Nov-2022 12:54:42 
sh***************************m$49,350.0017-Nov-2022 12:53:17 
Mh******g$49,250.0017-Nov-2022 12:53:16 
Mh******g$49,240.0017-Nov-2022 12:53:03 
na*******o$49,140.0017-Nov-2022 12:53:02 
na*******o$48,950.0017-Nov-2022 12:52:17 
na*******o$48,850.0017-Nov-2022 12:51:49 
Mh******g$48,750.0017-Nov-2022 12:51:48 
Mh******g$48,560.0017-Nov-2022 12:51:09 
na*******o$48,460.0017-Nov-2022 12:51:08 
na*******o$48,450.0017-Nov-2022 12:49:52 
Mh******g$48,350.0017-Nov-2022 12:49:51 
na*******o$48,200.0017-Nov-2022 12:46:43 
sh***************************m$48,100.0017-Nov-2022 12:46:42 
sh***************************m$48,050.0017-Nov-2022 12:43:59 
sh***************************m$47,950.0017-Nov-2022 12:43:06 
Mh******g$47,850.0017-Nov-2022 12:43:05 
sh***************************m$47,700.0017-Nov-2022 12:42:13 
Mh******g$47,600.0017-Nov-2022 12:42:12 
sh***************************m$47,450.0017-Nov-2022 12:40:00 
Mh******g$47,350.0017-Nov-2022 12:39:59 
sh***************************m$47,201.0016-Nov-2022 17:09:23 
ce*********n$47,101.0016-Nov-2022 17:09:23 
ce*********n$47,000.0015-Nov-2022 21:28:56 
Map Location

In order to bid on this property you must pre-authorize a deposit of $ on your credit card. NO hold will be placed on your credit card and your credit card will NOT be charged, UNLESS you are the high bidder and do not pay the required deposit within 24 hours of the advertised auction end. A $200 administrative fee will be added to any deposit that is charged to a credit card.